Regional Weather Roundup
Issued by NWS Portland, ME

Home | Current Version | Previous Version | Text Only | Print | Product List | Glossary On
Versions: 1 2 3 4 5 6 7 8 9 10 11 12 13 14 15 16 17 18 19 20 21 22 23 24 25 26 27 28 29 30 31 32 33 34 35 36 37 38 39 40 41 42 43 44 45 46 47 48 49 50
000
ASUS41 KGYX 181510
RWRGYX
WEATHER ROUNDUP FOR MAINE AND NEW HAMPSHIRE
NATIONAL WEATHER SERVICE GRAY ME
1100 AM EDT WED OCT 18 2017

MEZ002-005-006-010-012-015-018-020-021-024-026-027-029-181600-
MAINE

CITY           SKY/WX    TMP DP  RH WIND       PRES   REMARKS
PORTLAND       SUNNY     63  42  46 SW5       30.20F
BAR HARBOR     SUNNY     62  43  49 VRB7      30.15F
WISCASSET      SUNNY     63  43  48 VRB7      30.20F
ROCKLAND       SUNNY     60  43  53 W12       30.17F
FRYEBURG       SUNNY     62  44  51 VRB5      30.20S
LEWISTONAUBURN SUNNY     60  44  55 CALM      30.20F
AUGUSTA        SUNNY     60  41  49 W9        30.19S
WATERVILLE     SUNNY     61  43  51 SW10G17   30.15S
BANGOR         MOSUNNY   63  42  46 W12G21    30.15S
GREENVILLE       N/A     55  37  50 NW13G24   30.12R
MILLINOCKET    SUNNY     58  37  45 W14G25    30.10S
HOULTON        SUNNY     59  37  44 W14G24    30.05R
PRESQUE ISLE   MOSUNNY   55  36  48 W21       30.06R
FRENCHVILLE    CLOUDY    49  31  49 NW16G25   30.06R
CARIBOU        SUNNY     54  35  48 NW15G28   30.05R
$$

NHZ002-005-008-009-011-012-014-181600-
NEW HAMPSHIRE

CITY           SKY/WX    TMP DP  RH WIND       PRES   REMARKS
PORTSMOUTH     SUNNY     59  42  52 W8        30.22S
ROCHESTER      SUNNY     62  42  47 VRB7      30.23R
NASHUA         SUNNY     62  45  53 VRB7      30.26R
MANCHESTER     MOSUNNY   60  42  51 W3        30.24S
CONCORD        SUNNY     61  43  51 N6        30.24F
LACONIA        SUNNY     60  43  53 SW10      30.24R
PLYMOUTH       FAIR      60  42  51 W7        30.23R
BERLIN         SUNNY     59  43  55 W9        30.21R
WHITEFIELD     SUNNY     59  45  59 VRB5      30.22S
JAFFREY        SUNNY     59  44  57 SE5       30.26S
KEENE          SUNNY     57  40  52 SE3       30.28S
LEBANON        SUNNY     57  40  52 CALM      30.25S
MT WASHINGTON  FOG       34  34 100 NW56        N/A  VSB 1/8 WCI  16
$$

VTZ005-007-008-181600-
VERMONT

CITY           SKY/WX    TMP DP  RH WIND       PRES   REMARKS
ST JOHNSBURY     N/A     56  44  64 MISG      30.22S
MONTPELIER     SUNNY     57  46  66 NW7       30.28R
BURLINGTON     MOSUNNY   60  43  53 S8        30.24S
$$

MAZ007-012-024-CTZ003-RIZ002-NYZ038-NYZ072-181600-
SOUTHERN NEW ENGLAND AND NY

CITY           SKY/WX    TMP DP  RH WIND       PRES   REMARKS
BOSTON         MOSUNNY   64  43  46 W13       30.26S
WORCESTER      SUNNY     58  39  49 W12       30.27R
NANTUCKET      SUNNY     63  53  70 W14       30.28S
PROVIDENCE     MOSUNNY   65  44  46 W10       30.29S
HARTFORD       MOSUNNY   61  43  51 SE3       30.29S
ALBANY         MOSUNNY   57  40  52 SE3       30.30F
NEW YORK CITY  SUNNY     61  40  45 NW6       30.32S
$$

ANZ081-ANZ082-ANZ150-NHZ014-MEZ023>029-181600-
COASTAL MARINE OBSERVATIONS

STATION/POSITION TIME  TEMP    WIND        PRES    WAVE
                       AIR SEA DIR/SP/G            HT/PER
                 (UTC) (F)     (DEG/KT/KT) (MB)    (FT/S)
MOUNT DESERT ROC 1500   53     250/ 18/ 20 1021.6S
MATINICUS ROCK   1400   52     260/ 20/ 21 1021.6R
ISLE OF SHOALS   1400   53     260/ 12/ 13 1023.5R
JEFFREYS LEDGE   1406      58                N/A     3/ 5
GEORGES BANK BUO 1350   57 60              1024.8    3/ 7
$$

.............KEY..............
   WCI - WIND CHILL
   TC  - TEMPERATURE IN CELSIUS
   VSB - VISIBILITY IN MILES
   HX  - HEAT INDEX
   FAIR- INDICATES FEW OR NO CLOUDS BELOW 12,000 FT, WITH NO
         SIGNIFICANT WEATHER AND/OR OBSTRUCTIONS TO VISIBILITY.





USA.gov is the U.S. government's official web portal to all federal, state and local government web resources and services.